Volver al catálogo

CZ-6A DEB

ActivoPO
NORAD 54632·DEBRIS·🇨🇳 China

Lanzado Nov 11, 2022 desde Taiyuan Satellite Launch Center

Loading…

Próximos Pases (próximas 24 horas)

TLE

ActualizadoSource: Space-Track

Época: Sep 13, 2026, 16:19 UTC

1 54632U 22151PJ  26256.68042827  .00015635  00000-0  17604-2 0  9999
2 54632  98.6439 335.2327 0046018 357.2037   2.8912 14.85972598202512

Sigue CZ-6A DEB en tiempo real con AllMySat

Download on the App Store